Weather History for El Dorado, AR

Change the Weather History Date:

Sunday, June 16, 2013

  Actual Average Record
Temperature  
Mean Temperature 78 °F 78 °F  
Max Temperature 85 °F 89 °F 104 °F (1936)
Min Temperature 71 °F 68 °F 50 °F (1917)
Degree Days  
Heating Degree Days 0 0  
Month to date heating degree days 0 0  
Since 1 June heating degree days 0 0  
Since 1 July heating degree days 2712 2673  
Cooling Degree Days 13 13  
Month to date cooling degree days 189 190  
Year to date cooling degree days 467 501  
Since 1 June cooling degree days 189 190  
Growing Degree Days 28 (Base 50)    
Moisture  
Dew Point 72 °F    
Average Humidity 82    
Maximum Humidity 94    
Minimum Humidity 69    
Precipitation  
Precipitation 0.16 in 0.18 in 3.81 in (1976)
Month to date precipitation 3.97 2.49  
Year to date precipitation 21.06 25.47  
Snow  
Snow 0.00 in - - ()
Month to date snowfall 0.0  
Since 1 June snowfall 0.0  
Since 1 July snowfall 0.1  
Snow Depth 0.00 in    
Sea Level Pressure  
Sea Level Pressure 29.99 in    
Wind  
Wind Speed 3 mph (South)    
Max Wind Speed 16 mph    
Max Gust Speed 23 mph    
Visibility 9 miles    
Events Rain , Thunderstorm    
T = Trace of Precipitation, MM = Missing Value Source: NWS Daily Summary

Daily Weather History Graph

Daily Weather History Graph

Search for Another Location

Airport:

Trip Planner

Search our weather history database for the weather conditions in past years. The results will help you decide how hot, cold, wet, or windy it might be!

Date:

Astronomy

Jun. 16, 2013 Rise Set
Actual Time 6:01 AM CDT 8:22 PM CDT
Civil Twilight 5:32 AM CDT 8:51 PM CDT
Nautical Twilight 4:57 AM CDT 9:26 PM CDT
Astronomical Twilight 4:18 AM CDT 10:05 PM CDT
Moon 1:16 PM CDT (6/16) 12:47 AM CDT (6/16)
Length of Visible Light 15h 18m
Length of Day
14h 20m
Waxing Crescent, 50% of the Moon is Illuminated
Jun 16
Waxing Crescent
Jun 16
First Quarter
Jun 23
Full
Jun 29
Last Quarter
Jul 8
New

Hourly Weather History & Observations

Time (CDT) Temp. Heat Index Dew Point Humidity Pressure Visibility Wind Dir Wind Speed Gust Speed Precip Events Conditions
12:53 AM 72.0 °F - 70.0 °F 93% 29.99 in 10.0 mi Calm Calm - N/A   Clear
1:53 AM 73.0 °F - 70.0 °F 90% 29.97 in 10.0 mi Calm Calm - N/A   Clear
2:53 AM 72.0 °F - 69.1 °F 91% 29.95 in 10.0 mi East 3.5 mph - N/A   Clear
3:53 AM 73.0 °F - 69.1 °F 87% 29.96 in 10.0 mi Calm Calm - N/A   Clear
4:53 AM 72.0 °F - 69.1 °F 91% 29.97 in 10.0 mi Calm Calm - N/A   Clear
5:53 AM 72.0 °F - 69.1 °F 91% 29.99 in 9.0 mi Calm Calm - N/A   Clear
6:53 AM 72.0 °F - 70.0 °F 93% 30.00 in 8.0 mi ENE 3.5 mph - N/A   Partly Cloudy
7:53 AM 75.0 °F - 70.0 °F 84% 30.02 in 9.0 mi Calm Calm - N/A   Clear
8:53 AM 79.0 °F - 70.0 °F 74% 30.01 in 10.0 mi SSE 3.5 mph - N/A   Clear
9:53 AM 80.1 °F 83.8 °F 72.0 °F 76% 30.02 in 10.0 mi South 4.6 mph - N/A   Clear
10:53 AM 82.0 °F 87.9 °F 73.9 °F 76% 30.00 in 10.0 mi South 8.1 mph - N/A   Clear
11:53 AM 84.0 °F 91.9 °F 75.0 °F 74% 29.99 in 10.0 mi West 5.8 mph - N/A   Scattered Clouds
12:12 PM 82.4 °F 89.5 °F 75.2 °F 79% 30.02 in 10.0 mi WSW 3.5 mph - N/A   Overcast
12:28 PM 82.4 °F 89.5 °F 75.2 °F 79% 30.03 in 9.0 mi West 5.8 mph - N/A Thunderstorm Overcast
12:39 PM 82.4 °F 89.5 °F 75.2 °F 79% 30.03 in 9.0 mi WNW 4.6 mph - N/A Thunderstorm Overcast
12:53 PM 81.0 °F 87.3 °F 75.9 °F 85% 30.03 in 9.0 mi West 8.1 mph - N/A Thunderstorm Overcast
1:18 PM 73.4 °F - 71.6 °F 94% 30.04 in 1.8 mi West 9.2 mph - 0.10 in Rain , Thunderstorm Heavy Thunderstorms and Rain
1:26 PM 73.4 °F - 71.6 °F 94% 30.04 in 3.0 mi Variable 4.6 mph - 0.12 in Rain , Thunderstorm Light Thunderstorms and Rain
1:45 PM 73.4 °F - 71.6 °F 94% 30.03 in 8.0 mi WSW 4.6 mph - 0.12 in Rain , Thunderstorm Light Thunderstorms and Rain
1:53 PM 73.0 °F - 71.1 °F 93% 30.03 in 5.0 mi SSW 8.1 mph - 0.13 in Rain , Thunderstorm Light Thunderstorms and Rain
2:31 PM 71.6 °F - 69.8 °F 94% 30.03 in 8.0 mi ESE 3.5 mph - 0.03 in Rain Light Rain
2:53 PM 73.0 °F - 71.1 °F 93% 30.00 in 10.0 mi Calm Calm - 0.03 in   Mostly Cloudy
3:53 PM 79.0 °F - 73.0 °F 82% 29.98 in 10.0 mi ESE 5.8 mph - N/A   Clear
4:53 PM 82.0 °F 86.3 °F 71.1 °F 69% 29.96 in 10.0 mi SSE 3.5 mph - N/A   Clear
5:53 PM 82.9 °F 88.0 °F 72.0 °F 69% 29.95 in 10.0 mi SE 3.5 mph - N/A   Clear
6:53 PM 82.9 °F 88.8 °F 73.0 °F 72% 29.95 in 10.0 mi SSE 5.8 mph - N/A   Clear
7:53 PM 80.1 °F 84.2 °F 73.0 °F 79% 29.95 in 10.0 mi ESE 4.6 mph - N/A   Clear
8:53 PM 75.9 °F - 73.0 °F 91% 29.97 in 10.0 mi South 3.5 mph - N/A   Clear
9:53 PM 75.9 °F - 73.0 °F 91% 29.96 in 10.0 mi Calm Calm - N/A   Clear
10:53 PM 75.0 °F - 73.0 °F 94% 29.98 in 10.0 mi Calm Calm - N/A   Clear
11:45 PM 73.4 °F - 73.4 °F 100% 29.97 in 10.0 mi South 3.5 mph - N/A Thunderstorm Clear
11:53 PM 73.9 °F - 73.0 °F 97% 29.96 in 10.0 mi South 3.5 mph - N/A Thunderstorm Clear